sat.trackr.live / text

‹ back to catalog

STARLINK-33881

NORAD 63779 · 2025-091E

PAYLOAD ACTIVE UNKNOWN

§ Identity

Operator
Country
US
Launch date
2025-05-02
Launch site
AFETR
Launch vehicle
Mass (kg)
RCS (m²)

Purposes: comms

External: N2YO · Heavens-Above · Gunter

§ Orbital elements

Epoch: 2026-09-20T09:13:14.060928Z

Period
94.27 min
Inclination
43.0002°
Eccentricity
0.0001361
Mean motion
15.27583694 rev/d
Perigee alt
482.1 km
Apogee alt
484.0 km
Semi-major
6,861.2 km
B*
2.9605e-4
RAAN
33.3942°
Arg perigee
274.4227°
Mean anomaly
85.6469°
Rev number
7,867

§ Raw data

STARLINK-338811 63779U 25091E   26263.38419052  .00007894  00000+0  29605-3 0  99922 63779  43.0002  33.3942 0001361 274.4227  85.6469 15.27583694 78672

JSON: /api/v1/satellites/63779 · /tle

For live sub-satellite position, see the globe view (requires WebGL).

§ Visibility from observer

Set your observer location to see the next 7 days of passes ≥ 10°. The values pass through the URL so the page stays shareable.

No JS? Fill the form by hand. The geolocation button needs JavaScript.